This is the latest recevied weather packets stored in our database for station/object NR0A-4. If no packets are shown the sender has not sent any weather packets the latest 10 day(s).
| Time | Temp. | Humidity | Pressure | Rain* | Wind** | Luminosity | Snow |
|---|---|---|---|---|---|---|---|
| 1788456004 | 31.11° C | 60% | 1009.2 hPa | 0 mm | - | 714 W/m² | - |
| 1788455704 | 31.11° C | 59% | 1009 hPa | 0 mm | - | 708 W/m² | - |
| 1788455405 | 30.56° C | 58% | 1008.8 hPa | 0 mm | - | 705 W/m² | - |
| 1788455104 | 30.56° C | 57% | 1008.8 hPa | 0 mm | - | 696 W/m² | - |
| 1788454805 | 30.56° C | 59% | 1008.7 hPa | 0 mm | - | 689 W/m² | - |
| 1788454504 | 30.56° C | 58% | 1008.7 hPa | 0 mm | - | 687 W/m² | - |
| 1788454205 | 30.56° C | 59% | 1008.7 hPa | 0 mm | - | 680 W/m² | - |
| 1788453904 | 30.56° C | 60% | 1008.8 hPa | 0 mm | - | 670 W/m² | - |
| 1788453604 | 30.56° C | 60% | 1008.8 hPa | 0 mm | - | 664 W/m² | - |
| 1788453304 | 30° C | 59% | 1008.8 hPa | 0 mm | - | 656 W/m² | - |
| 1788453004 | 30° C | 60% | 1009 hPa | 0 mm | - | 650 W/m² | - |
| 1788452704 | 30° C | 60% | 1009 hPa | 0 mm | - | 638 W/m² | - |
| 1788452404 | 30° C | 60% | 1008.9 hPa | 0 mm | - | 629 W/m² | - |
| 1788452104 | 30° C | 59% | 1009.1 hPa | 0 mm | - | 624 W/m² | - |
| 1788451805 | 30° C | 59% | 1009.1 hPa | 0 mm | - | 612 W/m² | - |
| 1788451504 | 30° C | 61% | 1009.1 hPa | 0 mm | - | 606 W/m² | - |
| 1788451204 | 29.44° C | 60% | 1009.1 hPa | 0 mm | - | 596 W/m² | - |
| 1788450904 | 29.44° C | 61% | 1009 hPa | 0 mm | - | 589 W/m² | - |
| 1788450605 | 29.44° C | 60% | 1009 hPa | 0 mm | - | 575 W/m² | - |
| 1788450304 | 28.89° C | 60% | 1009 hPa | 0 mm | - | 568 W/m² | - |
| 1788450004 | 28.89° C | 60% | 1008.9 hPa | 0 mm | - | 555 W/m² | - |
| 1788449704 | 28.89° C | 62% | 1009.1 hPa | 0 mm | - | 536 W/m² | - |
| 1788449404 | 28.33° C | 63% | 1009 hPa | 0 mm | - | 531 W/m² | - |
| 1788449104 | 28.33° C | 62% | 1009 hPa | 0 mm | - | 517 W/m² | - |
| 1788448804 | 28.33° C | 61% | 1008.9 hPa | 0 mm | - | 504 W/m² | - |
* Rain latest hour (hover to see other rain measurements)
** Current wind speed in m/s (hover to see current wind gust speed)